Time,TemperatureF,DewpointF,PressureIn,WindDirection,WindDirectionDegrees,WindSpeedMPH,WindSpeedGustMPH,Humidity,HourlyPrecipIn,Conditions,Clouds,dailyrainin,SolarRadiationWatts/m^2,SoftwareType,DateUTC
2013-05-29 00:02:00,74.5,32.0,29.78,WSW,251,2.0,5.0,21,0.00,,,0.00,0.0,meteohub,2013-05-29 07:02:00,
2013-05-29 00:07:00,74.1,31.6,29.78,WSW,243,1.0,4.0,21,0.00,,,0.00,0.0,meteohub,2013-05-29 07:07:00,
2013-05-29 00:12:00,73.9,31.5,29.78,WSW,243,0.0,4.0,21,0.00,,,0.00,0.0,meteohub,2013-05-29 07:12:00,
2013-05-29 00:17:00,73.6,32.4,29.78,WSW,243,1.0,3.0,22,0.00,,,0.00,0.0,meteohub,2013-05-29 07:17:00,
2013-05-29 00:22:00,73.0,32.0,29.78,WSW,243,0.0,3.0,22,0.00,,,0.00,0.0,meteohub,2013-05-29 07:22:00,
2013-05-29 00:27:00,72.7,32.7,29.78,WSW,243,0.0,2.0,23,0.00,,,0.00,0.0,meteohub,2013-05-29 07:27:00,
2013-05-29 00:33:00,72.0,32.2,29.78,WSW,243,0.0,1.0,23,0.00,,,0.00,0.0,meteohub,2013-05-29 07:33:00,
2013-05-29 00:38:00,71.2,32.5,29.78,WSW,243,0.0,1.0,24,0.00,,,0.00,0.0,meteohub,2013-05-29 07:38:00,
2013-05-29 00:43:00,70.3,31.8,29.78,WSW,243,0.0,0.0,24,0.00,,,0.00,0.0,meteohub,2013-05-29 07:43:00,
2013-05-29 00:48:00,69.4,32.0,29.78,WSW,243,0.0,1.0,25,0.00,,,0.00,0.0,meteohub,2013-05-29 07:48:00,
2013-05-29 00:53:00,68.7,32.4,29.78,WSW,243,0.0,1.0,26,0.00,,,0.00,0.0,meteohub,2013-05-29 07:53:00,
2013-05-29 00:58:00,68.0,31.8,29.78,WSW,243,0.0,1.0,26,0.00,,,0.00,0.0,meteohub,2013-05-29 07:58:00,
2013-05-29 01:03:00,67.3,32.2,29.78,WSW,243,0.0,1.0,27,0.00,,,0.00,0.0,meteohub,2013-05-29 08:03:00,
2013-05-29 01:09:00,66.9,32.7,29.78,SSW,213,0.0,2.0,28,0.00,,,0.00,0.0,meteohub,2013-05-29 08:09:00,
2013-05-29 01:14:00,66.7,31.6,29.78,SSW,213,0.0,2.0,27,0.00,,,0.00,0.0,meteohub,2013-05-29 08:14:00,
2013-05-29 01:19:00,66.4,32.4,29.78,SSW,213,1.0,2.0,28,0.00,,,0.00,0.0,meteohub,2013-05-29 08:19:00,
2013-05-29 01:24:00,65.8,31.8,29.78,SSW,213,0.0,2.0,28,0.00,,,0.00,0.0,meteohub,2013-05-29 08:24:00,
2013-05-29 01:29:00,65.7,32.5,29.79,SSW,213,1.0,1.0,29,0.00,,,0.00,0.0,meteohub,2013-05-29 08:29:00,
2013-05-29 01:34:00,65.3,31.3,29.79,SSW,213,0.0,1.0,28,0.00,,,0.00,0.0,meteohub,2013-05-29 08:34:00,
2013-05-29 01:39:00,64.9,32.0,29.79,SSW,213,1.0,1.0,29,0.00,,,0.00,0.0,meteohub,2013-05-29 08:39:00,
2013-05-29 01:44:00,64.2,31.3,29.79,SSW,213,0.0,1.0,29,0.00,,,0.00,0.0,meteohub,2013-05-29 08:44:00,
2013-05-29 01:49:00,63.9,30.9,29.79,SSW,213,1.0,1.0,29,0.00,,,0.00,0.0,meteohub,2013-05-29 08:49:00,
2013-05-29 01:54:00,63.3,31.3,29.79,SSW,213,0.0,1.0,30,0.00,,,0.00,0.0,meteohub,2013-05-29 08:54:00,
2013-05-29 01:59:00,63.1,31.3,29.78,SSW,213,0.0,1.0,30,0.00,,,0.00,0.0,meteohub,2013-05-29 08:59:00,
2013-05-29 02:04:00,63.0,31.8,29.78,SSW,213,0.0,1.0,31,0.00,,,0.00,0.0,meteohub,2013-05-29 09:04:00,
2013-05-29 02:09:00,62.8,31.6,29.78,SSW,213,0.0,1.0,31,0.00,,,0.00,0.0,meteohub,2013-05-29 09:09:00,
2013-05-29 02:14:00,62.6,32.4,29.79,SSW,213,0.0,1.0,32,0.00,,,0.00,0.0,meteohub,2013-05-29 09:14:00,
2013-05-29 02:19:00,62.4,32.2,29.78,SSW,213,0.0,1.0,32,0.00,,,0.00,0.0,meteohub,2013-05-29 09:19:00,
2013-05-29 02:24:00,62.4,31.5,29.78,SSW,213,0.0,1.0,31,0.00,,,0.00,0.0,meteohub,2013-05-29 09:24:00,
2013-05-29 02:29:00,62.2,31.3,29.78,SSW,213,0.0,1.0,31,0.00,,,0.00,0.0,meteohub,2013-05-29 09:29:00,
2013-05-29 02:34:00,61.9,31.6,29.79,SSW,213,0.0,1.0,32,0.00,,,0.00,0.0,meteohub,2013-05-29 09:34:00,
2013-05-29 02:39:00,61.5,31.5,29.79,SSW,213,0.0,1.0,32,0.00,,,0.00,0.0,meteohub,2013-05-29 09:39:00,
2013-05-29 02:44:00,61.3,32.0,29.79,SSW,213,0.0,1.0,33,0.00,,,0.00,0.0,meteohub,2013-05-29 09:44:00,
2013-05-29 02:49:00,61.2,31.8,29.79,SSW,213,1.0,1.0,33,0.00,,,0.00,0.0,meteohub,2013-05-29 09:49:00,
2013-05-29 02:54:00,61.0,31.6,29.79,SSW,213,0.0,2.0,33,0.00,,,0.00,0.0,meteohub,2013-05-29 09:54:00,
2013-05-29 03:00:00,60.6,32.2,29.79,SSW,213,0.0,2.0,34,0.00,,,0.00,0.0,meteohub,2013-05-29 10:00:00,
2013-05-29 03:05:00,60.4,32.0,29.79,SSW,213,0.0,2.0,34,0.00,,,0.00,0.0,meteohub,2013-05-29 10:05:00,
2013-05-29 03:10:00,60.3,31.8,29.79,SSW,213,1.0,2.0,34,0.00,,,0.00,0.0,meteohub,2013-05-29 10:10:00,
2013-05-29 03:15:00,60.3,32.5,29.79,SSW,213,0.0,1.0,35,0.00,,,0.00,0.0,meteohub,2013-05-29 10:15:00,
2013-05-29 03:20:00,60.3,31.8,29.79,SSW,213,0.0,1.0,34,0.00,,,0.00,0.0,meteohub,2013-05-29 10:20:00,
2013-05-29 03:25:00,60.3,31.8,29.79,SSW,213,0.0,1.0,34,0.00,,,0.00,0.0,meteohub,2013-05-29 10:25:00,
2013-05-29 03:30:00,60.3,31.8,29.79,SSW,213,1.0,2.0,34,0.00,,,0.00,0.0,meteohub,2013-05-29 10:30:00,
2013-05-29 03:35:00,60.1,31.6,29.79,SSW,213,1.0,2.0,34,0.00,,,0.00,0.0,meteohub,2013-05-29 10:35:00,
2013-05-29 03:40:00,60.3,31.8,29.79,SSW,213,1.0,2.0,34,0.00,,,0.00,0.0,meteohub,2013-05-29 10:40:00,
2013-05-29 03:45:00,60.3,31.8,29.79,SSW,213,0.0,1.0,34,0.00,,,0.00,0.0,meteohub,2013-05-29 10:45:00,
2013-05-29 03:50:00,60.4,32.0,29.79,SSW,213,0.0,1.0,34,0.00,,,0.00,0.0,meteohub,2013-05-29 10:50:00,
2013-05-29 03:55:00,60.6,32.2,29.79,SSW,213,0.0,1.0,34,0.00,,,0.00,0.0,meteohub,2013-05-29 10:55:00,
2013-05-29 04:00:00,60.4,31.3,29.78,SSW,213,0.0,2.0,33,0.00,,,0.00,0.0,meteohub,2013-05-29 11:00:00,
2013-05-29 04:05:00,60.3,31.8,29.78,SSW,213,0.0,2.0,34,0.00,,,0.00,0.0,meteohub,2013-05-29 11:05:00,
2013-05-29 04:10:00,60.3,31.8,29.79,SSW,213,0.0,2.0,34,0.00,,,0.00,0.0,meteohub,2013-05-29 11:10:00,
2013-05-29 04:15:00,59.9,31.5,29.79,SSW,213,1.0,2.0,34,0.00,,,0.00,0.0,meteohub,2013-05-29 11:15:00,
2013-05-29 04:20:00,59.7,31.3,29.79,SSW,213,0.0,2.0,34,0.00,,,0.00,0.0,meteohub,2013-05-29 11:20:00,
2013-05-29 04:25:00,59.4,31.6,29.79,SSW,213,0.0,2.0,35,0.00,,,0.00,0.0,meteohub,2013-05-29 11:25:00,
2013-05-29 04:30:00,59.4,32.4,29.79,SSW,213,0.0,1.0,36,0.00,,,0.00,0.0,meteohub,2013-05-29 11:30:00,
2013-05-29 04:35:00,59.2,31.5,29.79,SSW,213,0.0,1.0,35,0.00,,,0.00,0.0,meteohub,2013-05-29 11:35:00,
2013-05-29 04:40:00,58.8,32.0,29.79,SSW,213,0.0,1.0,36,0.00,,,0.00,0.0,meteohub,2013-05-29 11:40:00,
2013-05-29 04:46:00,58.6,31.1,29.79,SSW,213,0.0,2.0,35,0.00,,,0.00,0.0,meteohub,2013-05-29 11:46:00,
2013-05-29 04:50:00,58.5,31.6,29.79,SSW,213,0.0,2.0,36,0.00,,,0.00,0.0,meteohub,2013-05-29 11:50:00,
2013-05-29 04:56:00,58.3,32.2,29.79,SSW,213,1.0,2.0,37,0.00,,,0.00,0.0,meteohub,2013-05-29 11:56:00,
2013-05-29 05:01:00,58.5,32.4,29.80,SSW,213,0.0,2.0,37,0.00,,,0.00,0.0,meteohub,2013-05-29 12:01:00,
2013-05-29 05:06:00,58.6,32.4,29.80,SSW,213,0.0,2.0,37,0.00,,,0.00,0.0,meteohub,2013-05-29 12:06:00,
2013-05-29 05:10:00,58.5,31.6,29.80,SSW,213,0.0,2.0,36,0.00,,,0.00,0.0,meteohub,2013-05-29 12:10:00,
2013-05-29 05:15:00,58.3,32.7,29.80,SSW,213,0.0,1.0,38,0.00,,,0.00,0.0,meteohub,2013-05-29 12:15:00,
2013-05-29 05:21:00,58.3,32.7,29.80,SSW,213,1.0,1.0,38,0.00,,,0.00,5.0,meteohub,2013-05-29 12:21:00,
2013-05-29 05:26:00,58.5,32.9,29.80,SSW,213,1.0,1.0,38,0.00,,,0.00,9.0,meteohub,2013-05-29 12:26:00,
2013-05-29 05:31:00,58.8,32.5,29.80,SSW,213,0.0,2.0,37,0.00,,,0.00,12.0,meteohub,2013-05-29 12:31:00,
2013-05-29 05:36:00,59.4,32.4,29.81,SSW,213,1.0,2.0,36,0.00,,,0.00,16.0,meteohub,2013-05-29 12:36:00,
2013-05-29 05:41:00,59.4,32.4,29.81,SSW,213,0.0,2.0,36,0.00,,,0.00,21.0,meteohub,2013-05-29 12:41:00,
2013-05-29 05:46:00,59.5,34.0,29.81,SSW,213,1.0,1.0,38,0.00,,,0.00,32.0,meteohub,2013-05-29 12:46:00,
2013-05-29 05:51:00,60.3,33.3,29.81,SSW,213,0.0,1.0,36,0.00,,,0.00,40.0,meteohub,2013-05-29 12:51:00,
2013-05-29 05:56:00,60.6,33.4,29.81,SSW,213,1.0,1.0,36,0.00,,,0.00,53.0,meteohub,2013-05-29 12:56:00,
2013-05-29 06:01:00,61.5,34.3,29.82,SSW,213,0.0,1.0,36,0.00,,,0.00,67.0,meteohub,2013-05-29 13:01:00,
2013-05-29 06:06:00,62.8,34.7,29.82,SSW,213,0.0,1.0,35,0.00,,,0.00,83.0,meteohub,2013-05-29 13:06:00,
2013-05-29 06:11:00,64.2,35.2,29.82,SSW,213,0.0,1.0,34,0.00,,,0.00,98.0,meteohub,2013-05-29 13:11:00,
2013-05-29 06:16:00,65.8,35.2,29.82,SSW,213,0.0,1.0,32,0.00,,,0.00,118.0,meteohub,2013-05-29 13:16:00,
2013-05-29 06:21:00,67.3,35.6,29.82,SSW,213,1.0,1.0,31,0.00,,,0.00,137.0,meteohub,2013-05-29 13:21:00,
2013-05-29 06:26:00,68.5,36.0,29.82,SSW,213,1.0,1.0,30,0.00,,,0.00,156.0,meteohub,2013-05-29 13:26:00,
2013-05-29 06:31:00,70.0,35.4,29.83,SSW,213,0.0,1.0,28,0.00,,,0.00,176.0,meteohub,2013-05-29 13:31:00,
2013-05-29 06:36:00,70.9,37.0,29.83,SSW,213,1.0,2.0,29,0.00,,,0.00,192.0,meteohub,2013-05-29 13:36:00,
2013-05-29 06:41:00,71.6,36.7,29.83,SSW,213,1.0,2.0,28,0.00,,,0.00,206.0,meteohub,2013-05-29 13:41:00,
2013-05-29 06:46:00,72.3,36.5,29.83,SSW,213,1.0,2.0,27,0.00,,,0.00,221.0,meteohub,2013-05-29 13:46:00,
2013-05-29 06:51:00,73.0,36.1,29.83,SSW,212,0.0,2.0,26,0.00,,,0.00,239.0,meteohub,2013-05-29 13:51:00,
2013-05-29 06:56:00,73.9,33.8,29.83,SSW,210,0.0,2.0,23,0.00,,,0.00,257.0,meteohub,2013-05-29 13:56:00,
2013-05-29 07:01:00,74.7,33.3,29.83,SSW,210,2.0,2.0,22,0.00,,,0.00,274.0,meteohub,2013-05-29 14:01:00,
2013-05-29 07:06:00,75.0,32.4,29.83,West,259,3.0,3.0,21,0.00,,,0.00,292.0,meteohub,2013-05-29 14:06:00,
2013-05-29 07:11:00,75.0,32.4,29.83,WSW,238,2.0,3.0,21,0.00,,,0.00,311.0,meteohub,2013-05-29 14:11:00,
2013-05-29 07:16:00,75.4,32.7,29.83,WNW,295,0.0,3.0,21,0.00,,,0.00,327.0,meteohub,2013-05-29 14:16:00,
2013-05-29 07:21:00,75.7,31.8,29.83,WNW,295,0.0,3.0,20,0.00,,,0.00,346.0,meteohub,2013-05-29 14:21:00,
2013-05-29 07:26:00,75.9,32.0,29.83,WNW,293,3.0,3.0,20,0.00,,,0.00,364.0,meteohub,2013-05-29 14:26:00,
2013-05-29 07:31:00,75.9,32.0,29.83,NNW,337,2.0,4.0,20,0.00,,,0.00,378.0,meteohub,2013-05-29 14:31:00,
2013-05-29 07:36:00,76.1,32.2,29.84,NW,306,1.0,4.0,20,0.00,,,0.00,397.0,meteohub,2013-05-29 14:36:00,
2013-05-29 07:41:00,76.5,32.4,29.84,West,273,1.0,5.0,20,0.00,,,0.00,415.0,meteohub,2013-05-29 14:41:00,
2013-05-29 07:46:00,76.5,31.1,29.84,WNW,295,1.0,7.0,19,0.00,,,0.00,431.0,meteohub,2013-05-29 14:46:00,
2013-05-29 07:51:00,76.8,31.5,29.84,West,279,1.0,7.0,19,0.00,,,0.00,448.0,meteohub,2013-05-29 14:51:00,
2013-05-29 07:56:00,77.2,31.8,29.84,WNW,298,3.0,5.0,19,0.00,,,0.00,468.0,meteohub,2013-05-29 14:56:00,
2013-05-29 08:01:00,77.2,31.8,29.84,WNW,293,2.0,7.0,19,0.00,,,0.00,483.0,meteohub,2013-05-29 15:01:00,
2013-05-29 08:06:00,76.8,31.5,29.84,SW,222,2.0,8.0,19,0.00,,,0.00,499.0,meteohub,2013-05-29 15:06:00,
2013-05-29 08:11:00,77.4,31.8,29.84,West,280,3.0,8.0,19,0.00,,,0.00,515.0,meteohub,2013-05-29 15:11:00,
2013-05-29 08:16:00,77.5,30.7,29.84,West,264,4.0,8.0,18,0.00,,,0.00,533.0,meteohub,2013-05-29 15:16:00,
2013-05-29 08:21:00,77.7,32.2,29.84,West,264,1.0,7.0,19,0.00,,,0.00,548.0,meteohub,2013-05-29 15:21:00,
2013-05-29 08:27:00,77.7,32.2,29.85,SW,232,5.0,7.0,19,0.00,,,0.00,564.0,meteohub,2013-05-29 15:27:00,
2013-05-29 08:32:00,77.7,32.2,29.85,NW,306,3.0,8.0,19,0.00,,,0.00,580.0,meteohub,2013-05-29 15:32:00,
2013-05-29 08:37:00,78.1,31.1,29.84,West,271,3.0,8.0,18,0.00,,,0.00,594.0,meteohub,2013-05-29 15:37:00,
2013-05-29 08:42:00,78.4,31.5,29.84,SW,215,2.0,8.0,18,0.00,,,0.00,612.0,meteohub,2013-05-29 15:42:00,
2013-05-29 08:47:00,79.0,31.8,29.84,WNW,298,3.0,6.0,18,0.00,,,0.00,624.0,meteohub,2013-05-29 15:47:00,
2013-05-29 08:52:00,79.3,32.2,29.84,SSW,208,2.0,5.0,18,0.00,,,0.00,640.0,meteohub,2013-05-29 15:52:00,
2013-05-29 08:57:00,79.5,32.4,29.84,West,259,2.0,5.0,18,0.00,,,0.00,657.0,meteohub,2013-05-29 15:57:00,
2013-05-29 09:02:00,79.9,32.5,29.84,SSW,210,3.0,7.0,18,0.00,,,0.00,671.0,meteohub,2013-05-29 16:02:00,
2013-05-29 09:07:00,80.1,31.3,29.84,West,259,6.0,16.0,17,0.00,,,0.00,687.0,meteohub,2013-05-29 16:07:00,
2013-05-29 09:12:00,80.1,31.3,29.84,WNW,288,3.0,16.0,17,0.00,,,0.00,701.0,meteohub,2013-05-29 16:12:00,
2013-05-29 09:17:00,80.2,31.5,29.84,WNW,282,1.0,16.0,17,0.00,,,0.00,717.0,meteohub,2013-05-29 16:17:00,
2013-05-29 09:22:00,80.4,31.6,29.83,NNW,331,4.0,7.0,17,0.00,,,0.00,728.0,meteohub,2013-05-29 16:22:00,
2013-05-29 09:27:00,80.8,31.8,29.84,North,355,4.0,7.0,17,0.00,,,0.00,742.0,meteohub,2013-05-29 16:27:00,
2013-05-29 09:32:00,80.8,31.8,29.84,NNW,327,5.0,7.0,17,0.00,,,0.00,758.0,meteohub,2013-05-29 16:32:00,
2013-05-29 09:37:00,81.3,32.4,29.84,NNW,348,2.0,7.0,17,0.00,,,0.00,770.0,meteohub,2013-05-29 16:37:00,
2013-05-29 09:42:00,82.0,31.5,29.84,West,270,4.0,7.0,16,0.00,,,0.00,786.0,meteohub,2013-05-29 16:42:00,
2013-05-29 09:47:00,81.7,31.1,29.84,WSW,238,2.0,6.0,16,0.00,,,0.00,796.0,meteohub,2013-05-29 16:47:00,
2013-05-29 09:52:00,82.0,31.5,29.84,SE,133,2.0,6.0,16,0.00,,,0.00,810.0,meteohub,2013-05-29 16:52:00,
2013-05-29 09:57:00,82.8,32.0,29.84,SSW,207,2.0,6.0,16,0.00,,,0.00,821.0,meteohub,2013-05-29 16:57:00,
2013-05-29 10:02:00,82.8,32.0,29.83,SSW,196,3.0,7.0,16,0.00,,,0.00,833.0,meteohub,2013-05-29 17:02:00,
2013-05-29 10:07:00,82.6,31.8,29.83,SW,236,2.0,7.0,16,0.00,,,0.00,846.0,meteohub,2013-05-29 17:07:00,
2013-05-29 10:12:00,82.4,33.3,29.83,WSW,258,3.0,7.0,17,0.00,,,0.00,856.0,meteohub,2013-05-29 17:12:00,
2013-05-29 10:17:00,82.8,33.4,29.83,SSW,199,5.0,7.0,17,0.00,,,0.00,868.0,meteohub,2013-05-29 17:17:00,
2013-05-29 10:22:00,83.1,33.8,29.83,South,188,0.0,7.0,17,0.00,,,0.00,877.0,meteohub,2013-05-29 17:22:00,
2013-05-29 10:27:00,83.8,34.3,29.83,West,269,4.0,7.0,17,0.00,,,0.00,888.0,meteohub,2013-05-29 17:27:00,
2013-05-29 10:32:00,83.7,34.2,29.83,WSW,256,3.0,18.0,17,0.00,,,0.00,895.0,meteohub,2013-05-29 17:32:00,
2013-05-29 10:37:00,83.1,33.8,29.84,WSW,257,2.0,18.0,17,0.00,,,0.00,904.0,meteohub,2013-05-29 17:37:00,
2013-05-29 10:42:00,83.3,34.0,29.84,NW,323,5.0,18.0,17,0.00,,,0.00,912.0,meteohub,2013-05-29 17:42:00,
2013-05-29 10:47:00,84.4,33.3,29.84,WNW,300,4.0,9.0,16,0.00,,,0.00,919.0,meteohub,2013-05-29 17:47:00,
2013-05-29 10:52:00,84.4,34.9,29.84,SW,219,4.0,9.0,17,0.00,,,0.00,926.0,meteohub,2013-05-29 17:52:00,
2013-05-29 10:57:00,84.6,34.9,29.84,South,171,2.0,9.0,17,0.00,,,0.00,937.0,meteohub,2013-05-29 17:57:00,
2013-05-29 11:02:00,85.1,35.4,29.84,SSW,194,2.0,7.0,17,0.00,,,0.00,942.0,meteohub,2013-05-29 18:02:00,
2013-05-29 11:07:00,85.6,35.8,29.84,WSW,251,6.0,7.0,17,0.00,,,0.00,947.0,meteohub,2013-05-29 18:07:00,
2013-05-29 11:12:00,85.6,35.8,29.83,NW,313,2.0,8.0,17,0.00,,,0.00,954.0,meteohub,2013-05-29 18:12:00,
2013-05-29 11:17:00,85.5,35.6,29.83,WSW,253,7.0,8.0,17,0.00,,,0.00,962.0,meteohub,2013-05-29 18:17:00,
2013-05-29 11:22:00,85.5,37.0,29.83,SW,216,9.0,10.0,18,0.00,,,0.00,967.0,meteohub,2013-05-29 18:22:00,
2013-05-29 11:27:00,86.2,36.3,29.83,SW,223,4.0,10.0,17,0.00,,,0.00,972.0,meteohub,2013-05-29 18:27:00,
2013-05-29 11:32:00,86.5,36.5,29.83,West,259,4.0,10.0,17,0.00,,,0.00,977.0,meteohub,2013-05-29 18:32:00,
2013-05-29 11:37:00,86.5,36.5,29.83,WSW,258,3.0,9.0,17,0.00,,,0.00,981.0,meteohub,2013-05-29 18:37:00,
2013-05-29 11:42:00,86.4,36.3,29.83,West,269,7.0,9.0,17,0.00,,,0.00,984.0,meteohub,2013-05-29 18:42:00,
2013-05-29 11:47:00,86.4,36.3,29.83,SSW,207,4.0,10.0,17,0.00,,,0.00,990.0,meteohub,2013-05-29 18:47:00,
2013-05-29 11:52:00,86.5,35.1,29.83,NW,305,3.0,10.0,16,0.00,,,0.00,988.0,meteohub,2013-05-29 18:52:00,
2013-05-29 11:57:00,87.1,35.4,29.83,West,271,6.0,12.0,16,0.00,,,0.00,995.0,meteohub,2013-05-29 18:57:00,
2013-05-29 12:02:00,87.3,35.6,29.83,WSW,254,6.0,12.0,16,0.00,,,0.00,997.0,meteohub,2013-05-29 19:02:00,
2013-05-29 12:07:00,87.3,35.6,29.83,WSW,243,4.0,12.0,16,0.00,,,0.00,998.0,meteohub,2013-05-29 19:07:00,
2013-05-29 12:12:00,87.8,36.0,29.82,SE,140,1.0,12.0,16,0.00,,,0.00,1004.0,meteohub,2013-05-29 19:12:00,
2013-05-29 12:17:00,88.3,34.9,29.82,SW,216,5.0,12.0,15,0.00,,,0.00,998.0,meteohub,2013-05-29 19:17:00,
2013-05-29 12:21:00,88.3,34.9,29.82,West,263,3.0,9.0,15,0.00,,,0.00,1002.0,meteohub,2013-05-29 19:21:00,
2013-05-29 12:27:00,88.3,34.9,29.82,SSW,207,7.0,15.0,15,0.00,,,0.00,1004.0,meteohub,2013-05-29 19:27:00,
2013-05-29 12:32:00,88.3,34.9,29.81,SW,217,3.0,15.0,15,0.00,,,0.00,1002.0,meteohub,2013-05-29 19:32:00,
2013-05-29 12:37:00,88.9,35.2,29.81,SW,215,7.0,15.0,15,0.00,,,0.00,1002.0,meteohub,2013-05-29 19:37:00,
2013-05-29 12:42:00,88.2,34.7,29.81,West,275,5.0,12.0,15,0.00,,,0.00,1002.0,meteohub,2013-05-29 19:42:00,
2013-05-29 12:47:00,88.3,34.9,29.81,WSW,252,3.0,12.0,15,0.00,,,0.00,1000.0,meteohub,2013-05-29 19:47:00,
2013-05-29 12:52:00,88.3,34.9,29.81,SSW,209,2.0,10.0,15,0.00,,,0.00,997.0,meteohub,2013-05-29 19:52:00,
2013-05-29 12:57:00,88.9,33.6,29.81,SSW,207,7.0,10.0,14,0.00,,,0.00,995.0,meteohub,2013-05-29 19:57:00,
2013-05-29 13:02:00,89.4,34.0,29.81,SSW,209,6.0,11.0,14,0.00,,,0.00,991.0,meteohub,2013-05-29 20:02:00,
2013-05-29 13:07:00,89.6,34.2,29.80,SW,227,8.0,12.0,14,0.00,,,0.00,990.0,meteohub,2013-05-29 20:07:00,
2013-05-29 13:12:00,89.6,34.2,29.80,SW,223,8.0,12.0,14,0.00,,,0.00,986.0,meteohub,2013-05-29 20:12:00,
2013-05-29 13:17:00,90.0,32.5,29.80,SSW,196,4.0,12.0,13,0.00,,,0.00,983.0,meteohub,2013-05-29 20:17:00,
2013-05-29 13:22:00,90.5,32.9,29.79,SW,235,3.0,15.0,13,0.00,,,0.00,979.0,meteohub,2013-05-29 20:22:00,
2013-05-29 13:27:00,90.7,33.1,29.79,WSW,252,5.0,15.0,13,0.00,,,0.00,974.0,meteohub,2013-05-29 20:27:00,
2013-05-29 13:32:00,90.1,30.7,29.79,WSW,257,5.0,15.0,12,0.00,,,0.00,969.0,meteohub,2013-05-29 20:32:00,
2013-05-29 13:37:00,90.3,32.9,29.79,WSW,247,5.0,11.0,13,0.00,,,0.00,962.0,meteohub,2013-05-29 20:37:00,
2013-05-29 13:42:00,90.3,32.9,29.79,WSW,238,4.0,11.0,13,0.00,,,0.00,956.0,meteohub,2013-05-29 20:42:00,
2013-05-29 13:47:00,90.1,32.7,29.79,WSW,257,11.0,11.0,13,0.00,,,0.00,951.0,meteohub,2013-05-29 20:47:00,
2013-05-29 13:52:00,89.8,34.2,29.78,SSW,210,3.0,12.0,14,0.00,,,0.00,940.0,meteohub,2013-05-29 20:52:00,
2013-05-29 13:57:00,90.7,33.1,29.78,SSW,207,5.0,12.0,13,0.00,,,0.00,935.0,meteohub,2013-05-29 20:57:00,
2013-05-29 14:02:00,91.0,31.5,29.78,SW,230,10.0,12.0,12,0.00,,,0.00,930.0,meteohub,2013-05-29 21:02:00,
2013-05-29 14:07:00,90.9,31.3,29.78,SW,232,8.0,19.0,12,0.00,,,0.00,923.0,meteohub,2013-05-29 21:07:00,
2013-05-29 14:12:00,91.0,31.5,29.78,WSW,251,7.0,19.0,12,0.00,,,0.00,912.0,meteohub,2013-05-29 21:12:00,
2013-05-29 14:17:00,91.2,29.3,29.78,NW,315,8.0,19.0,11,0.00,,,0.00,904.0,meteohub,2013-05-29 21:17:00,
2013-05-29 14:22:00,91.8,27.5,29.78,WSW,252,2.0,16.0,10,0.00,,,0.00,895.0,meteohub,2013-05-29 21:22:00,
2013-05-29 14:27:00,91.8,29.8,29.77,WSW,240,5.0,14.0,11,0.00,,,0.00,889.0,meteohub,2013-05-29 21:27:00,
2013-05-29 14:32:00,92.7,30.6,29.77,WSW,248,9.0,15.0,11,0.00,,,0.00,879.0,meteohub,2013-05-29 21:32:00,
2013-05-29 14:37:00,92.8,30.6,29.77,WSW,257,4.0,15.0,11,0.00,,,0.00,867.0,meteohub,2013-05-29 21:37:00,
2013-05-29 14:42:00,92.7,30.6,29.77,SW,223,3.0,15.0,11,0.00,,,0.00,853.0,meteohub,2013-05-29 21:42:00,
2013-05-29 14:47:00,92.1,27.7,29.77,SSW,205,6.0,15.0,10,0.00,,,0.00,844.0,meteohub,2013-05-29 21:47:00,
2013-05-29 14:52:00,91.8,27.5,29.77,West,274,4.0,14.0,10,0.00,,,0.00,831.0,meteohub,2013-05-29 21:52:00,
2013-05-29 14:57:00,91.9,27.7,29.77,WSW,253,6.0,14.0,10,0.00,,,0.00,823.0,meteohub,2013-05-29 21:57:00,
2013-05-29 15:02:00,91.8,27.5,29.77,WSW,246,9.0,13.0,10,0.00,,,0.00,809.0,meteohub,2013-05-29 22:02:00,
2013-05-29 15:07:00,91.8,27.5,29.76,West,260,5.0,15.0,10,0.00,,,0.00,800.0,meteohub,2013-05-29 22:07:00,
2013-05-29 15:12:00,92.7,28.2,29.76,West,261,10.0,15.0,10,0.00,,,0.00,788.0,meteohub,2013-05-29 22:12:00,
2013-05-29 15:17:00,92.5,28.0,29.76,WSW,256,5.0,15.0,10,0.00,,,0.00,773.0,meteohub,2013-05-29 22:17:00,
2013-05-29 15:22:00,91.9,27.7,29.76,SSW,210,4.0,14.0,10,0.00,,,0.00,765.0,meteohub,2013-05-29 22:22:00,
2013-05-29 15:27:00,91.8,27.5,29.76,WNW,290,6.0,14.0,10,0.00,,,0.00,745.0,meteohub,2013-05-29 22:27:00,
2013-05-29 15:32:00,91.6,29.7,29.76,West,268,6.0,14.0,11,0.00,,,0.00,731.0,meteohub,2013-05-29 22:32:00,
2013-05-29 15:37:00,91.9,30.0,29.75,WNW,286,4.0,13.0,11,0.00,,,0.00,721.0,meteohub,2013-05-29 22:37:00,
2013-05-29 15:42:00,92.3,27.9,29.75,WNW,301,7.0,13.0,10,0.00,,,0.00,703.0,meteohub,2013-05-29 22:42:00,
2013-05-29 15:47:00,92.1,27.7,29.75,West,270,3.0,12.0,10,0.00,,,0.00,687.0,meteohub,2013-05-29 22:47:00,
2013-05-29 15:52:00,91.9,27.7,29.75,West,265,4.0,14.0,10,0.00,,,0.00,673.0,meteohub,2013-05-29 22:52:00,
2013-05-29 15:57:00,92.1,27.7,29.75,WSW,241,6.0,14.0,10,0.00,,,0.00,659.0,meteohub,2013-05-29 22:57:00,
2013-05-29 16:02:00,92.5,28.0,29.75,SSW,209,5.0,14.0,10,0.00,,,0.00,643.0,meteohub,2013-05-29 23:02:00,
2013-05-29 16:07:00,92.7,28.2,29.75,WSW,258,2.0,13.0,10,0.00,,,0.00,624.0,meteohub,2013-05-29 23:07:00,
2013-05-29 16:12:00,92.7,28.2,29.75,West,273,5.0,15.0,10,0.00,,,0.00,612.0,meteohub,2013-05-29 23:12:00,
2013-05-29 16:17:00,92.3,30.2,29.75,West,269,3.0,15.0,11,0.00,,,0.00,594.0,meteohub,2013-05-29 23:17:00,
2013-05-29 16:22:00,91.9,27.7,29.75,West,268,5.0,15.0,10,0.00,,,0.00,578.0,meteohub,2013-05-29 23:22:00,
2013-05-29 16:27:00,92.1,27.7,29.74,West,260,7.0,14.0,10,0.00,,,0.00,564.0,meteohub,2013-05-29 23:27:00,
2013-05-29 16:32:00,92.3,27.9,29.74,WNW,303,7.0,10.0,10,0.00,,,0.00,547.0,meteohub,2013-05-29 23:32:00,
2013-05-29 16:37:00,92.3,27.9,29.74,West,279,3.0,13.0,10,0.00,,,0.00,527.0,meteohub,2013-05-29 23:37:00,
2013-05-29 16:42:00,92.1,30.0,29.74,West,267,3.0,13.0,11,0.00,,,0.00,508.0,meteohub,2013-05-29 23:42:00,
2013-05-29 16:47:00,92.7,28.2,29.74,SSW,212,5.0,13.0,10,0.00,,,0.00,496.0,meteohub,2013-05-29 23:47:00,
2013-05-29 16:52:00,92.7,28.2,29.74,NW,313,1.0,11.0,10,0.00,,,0.00,478.0,meteohub,2013-05-29 23:52:00,
2013-05-29 16:57:00,92.8,28.2,29.74,West,259,10.0,10.0,10,0.00,,,0.00,461.0,meteohub,2013-05-29 23:57:00,
2013-05-29 17:02:00,92.1,27.7,29.74,NW,313,7.0,13.0,10,0.00,,,0.00,443.0,meteohub,2013-05-30 00:02:00,
2013-05-29 17:07:00,91.9,30.0,29.74,NNW,342,7.0,13.0,11,0.00,,,0.00,424.0,meteohub,2013-05-30 00:07:00,
2013-05-29 17:12:00,91.9,30.0,29.74,NW,314,6.0,13.0,11,0.00,,,0.00,406.0,meteohub,2013-05-30 00:12:00,
2013-05-29 17:17:00,91.8,29.8,29.74,WSW,251,6.0,11.0,11,0.00,,,0.00,390.0,meteohub,2013-05-30 00:17:00,
2013-05-29 17:22:00,91.8,29.8,29.74,West,263,2.0,11.0,11,0.00,,,0.00,374.0,meteohub,2013-05-30 00:22:00,
2013-05-29 17:27:00,92.3,30.2,29.74,NW,312,3.0,10.0,11,0.00,,,0.00,357.0,meteohub,2013-05-30 00:27:00,
2013-05-29 17:32:00,91.9,27.7,29.74,North,355,6.0,11.0,10,0.00,,,0.00,341.0,meteohub,2013-05-30 00:32:00,
2013-05-29 17:37:00,91.6,29.7,29.73,SW,226,6.0,12.0,11,0.00,,,0.00,320.0,meteohub,2013-05-30 00:37:00,
2013-05-29 17:42:00,91.6,29.7,29.74,WSW,257,4.0,12.0,11,0.00,,,0.00,301.0,meteohub,2013-05-30 00:42:00,
2013-05-29 17:47:00,91.2,29.3,29.74,WNW,294,5.0,10.0,11,0.00,,,0.00,285.0,meteohub,2013-05-30 00:47:00,
2013-05-29 17:52:00,91.0,31.5,29.74,West,281,2.0,10.0,12,0.00,,,0.00,265.0,meteohub,2013-05-30 00:52:00,
2013-05-29 17:57:00,91.0,31.5,29.73,WSW,252,8.0,10.0,12,0.00,,,0.00,251.0,meteohub,2013-05-30 00:57:00,
2013-05-29 18:02:00,90.7,28.9,29.74,WNW,302,3.0,13.0,11,0.00,,,0.00,230.0,meteohub,2013-05-30 01:02:00,
2013-05-29 18:07:00,90.7,28.9,29.74,WSW,243,5.0,13.0,11,0.00,,,0.00,209.0,meteohub,2013-05-30 01:07:00,
2013-05-29 18:12:00,90.1,28.6,29.73,West,260,6.0,13.0,11,0.00,,,0.00,186.0,meteohub,2013-05-30 01:12:00,
2013-05-29 18:17:00,90.1,28.6,29.73,WNW,292,2.0,10.0,11,0.00,,,0.00,127.0,meteohub,2013-05-30 01:17:00,
2013-05-29 18:22:00,90.3,30.7,29.73,WNW,296,3.0,9.0,12,0.00,,,0.00,144.0,meteohub,2013-05-30 01:22:00,
2013-05-29 18:27:00,90.0,30.6,29.73,West,263,2.0,8.0,12,0.00,,,0.00,58.0,meteohub,2013-05-30 01:27:00,
2013-05-29 18:32:00,89.2,30.0,29.73,West,272,3.0,10.0,12,0.00,,,0.00,42.0,meteohub,2013-05-30 01:32:00,
2013-05-29 18:37:00,89.1,29.8,29.73,NW,317,4.0,10.0,12,0.00,,,0.00,39.0,meteohub,2013-05-30 01:37:00,
2013-05-29 18:42:00,88.9,29.7,29.73,West,265,3.0,10.0,12,0.00,,,0.00,28.0,meteohub,2013-05-30 01:42:00,
2013-05-29 18:47:00,88.3,29.3,29.74,WNW,292,2.0,10.0,12,0.00,,,0.00,26.0,meteohub,2013-05-30 01:47:00,
2013-05-29 18:52:00,88.2,29.1,29.73,WSW,248,2.0,10.0,12,0.00,,,0.00,23.0,meteohub,2013-05-30 01:52:00,
2013-05-29 18:57:00,87.8,28.9,29.73,NW,323,3.0,10.0,12,0.00,,,0.00,21.0,meteohub,2013-05-30 01:57:00,
2013-05-29 19:02:00,87.4,28.6,29.73,NW,304,4.0,8.0,12,0.00,,,0.00,19.0,meteohub,2013-05-30 02:02:00,
2013-05-29 19:07:00,87.3,28.4,29.73,West,259,1.0,7.0,12,0.00,,,0.00,16.0,meteohub,2013-05-30 02:07:00,
2013-05-29 19:12:00,86.9,28.2,29.73,West,275,2.0,7.0,12,0.00,,,0.00,12.0,meteohub,2013-05-30 02:12:00,
2013-05-29 19:17:00,86.5,29.8,29.74,West,267,2.0,7.0,13,0.00,,,0.00,9.0,meteohub,2013-05-30 02:17:00,
2013-05-29 19:22:00,86.4,29.7,29.74,West,275,3.0,7.0,13,0.00,,,0.00,5.0,meteohub,2013-05-30 02:22:00,
2013-05-29 19:27:00,85.8,29.3,29.74,NW,321,2.0,7.0,13,0.00,,,0.00,0.0,meteohub,2013-05-30 02:27:00,
2013-05-29 19:32:00,85.5,28.9,29.74,NW,311,5.0,5.0,13,0.00,,,0.00,0.0,meteohub,2013-05-30 02:32:00,
2013-05-29 19:37:00,85.5,28.9,29.74,West,277,4.0,6.0,13,0.00,,,0.00,0.0,meteohub,2013-05-30 02:37:00,
2013-05-29 19:42:00,85.5,30.9,29.74,WNW,289,3.0,7.0,14,0.00,,,0.00,0.0,meteohub,2013-05-30 02:42:00,
2013-05-29 19:47:00,85.3,30.7,29.74,West,259,1.0,7.0,14,0.00,,,0.00,0.0,meteohub,2013-05-30 02:47:00,
2013-05-29 19:52:00,84.9,30.4,29.74,West,279,2.0,7.0,14,0.00,,,0.00,0.0,meteohub,2013-05-30 02:52:00,
2013-05-29 19:57:00,84.6,30.2,29.74,WNW,296,2.0,5.0,14,0.00,,,0.00,0.0,meteohub,2013-05-30 02:57:00,
2013-05-29 20:02:00,84.2,29.8,29.74,NW,313,3.0,5.0,14,0.00,,,0.00,0.0,meteohub,2013-05-30 03:02:00,
2013-05-29 20:07:00,84.2,29.8,29.75,WNW,300,2.0,5.0,14,0.00,,,0.00,0.0,meteohub,2013-05-30 03:07:00,
2013-05-29 20:12:00,84.2,29.8,29.75,WNW,284,1.0,8.0,14,0.00,,,0.00,0.0,meteohub,2013-05-30 03:12:00,
2013-05-29 20:17:00,84.0,29.7,29.75,WNW,290,1.0,8.0,14,0.00,,,0.00,0.0,meteohub,2013-05-30 03:17:00,
2013-05-29 20:22:00,83.8,31.3,29.75,WNW,288,1.0,8.0,15,0.00,,,0.00,0.0,meteohub,2013-05-30 03:22:00,
2013-05-29 20:27:00,83.7,31.1,29.75,NW,305,2.0,5.0,15,0.00,,,0.00,0.0,meteohub,2013-05-30 03:27:00,
2013-05-29 20:32:00,83.5,30.9,29.75,West,275,3.0,5.0,15,0.00,,,0.00,0.0,meteohub,2013-05-30 03:32:00,
2013-05-29 20:37:00,83.7,31.1,29.76,West,269,3.0,7.0,15,0.00,,,0.00,0.0,meteohub,2013-05-30 03:37:00,
2013-05-29 20:42:00,83.7,31.1,29.76,West,264,3.0,7.0,15,0.00,,,0.00,0.0,meteohub,2013-05-30 03:42:00,
2013-05-29 20:47:00,83.5,30.9,29.76,West,271,3.0,7.0,15,0.00,,,0.00,0.0,meteohub,2013-05-30 03:47:00,
2013-05-29 20:52:00,83.1,32.4,29.77,West,265,3.0,7.0,16,0.00,,,0.00,0.0,meteohub,2013-05-30 03:52:00,
2013-05-29 20:57:00,82.6,31.8,29.77,West,265,1.0,5.0,16,0.00,,,0.00,0.0,meteohub,2013-05-30 03:57:00,
2013-05-29 21:01:00,82.0,31.5,29.77,West,260,0.0,4.0,16,0.00,,,0.00,0.0,meteohub,2013-05-30 04:01:00,
2013-05-29 21:06:00,81.3,32.4,29.78,West,265,1.0,4.0,17,0.00,,,0.00,0.0,meteohub,2013-05-30 04:06:00,
2013-05-29 21:12:00,80.8,31.8,29.78,West,266,1.0,3.0,17,0.00,,,0.00,0.0,meteohub,2013-05-30 04:12:00,
2013-05-29 21:17:00,80.2,32.9,29.78,West,266,0.0,3.0,18,0.00,,,0.00,0.0,meteohub,2013-05-30 04:17:00,
2013-05-29 21:22:00,79.9,32.5,29.78,West,266,1.0,2.0,18,0.00,,,0.00,0.0,meteohub,2013-05-30 04:22:00,
2013-05-29 21:27:00,79.3,32.2,29.78,West,266,0.0,2.0,18,0.00,,,0.00,0.0,meteohub,2013-05-30 04:27:00,
2013-05-29 21:32:00,79.0,31.8,29.79,WSW,253,2.0,3.0,18,0.00,,,0.00,0.0,meteohub,2013-05-30 04:32:00,
2013-05-29 21:37:00,79.0,31.8,29.80,West,260,2.0,7.0,18,0.00,,,0.00,0.0,meteohub,2013-05-30 04:37:00,
2013-05-29 21:42:00,79.2,32.0,29.80,West,265,2.0,7.0,18,0.00,,,0.00,0.0,meteohub,2013-05-30 04:42:00,
2013-05-29 21:47:00,79.5,33.6,29.80,West,270,2.0,7.0,19,0.00,,,0.00,0.0,meteohub,2013-05-30 04:47:00,
2013-05-29 21:52:00,80.1,36.7,29.80,West,269,1.0,6.0,21,0.00,,,0.00,0.0,meteohub,2013-05-30 04:52:00,
2013-05-29 21:57:00,80.4,39.2,29.80,West,270,4.0,9.0,23,0.00,,,0.00,0.0,meteohub,2013-05-30 04:57:00,
2013-05-29 22:02:00,80.8,40.6,29.81,West,260,6.0,11.0,24,0.00,,,0.00,0.0,meteohub,2013-05-30 05:02:00,
2013-05-29 22:07:00,80.8,41.7,29.81,WSW,237,6.0,11.0,25,0.00,,,0.00,0.0,meteohub,2013-05-30 05:07:00,
2013-05-29 22:12:00,80.8,42.6,29.81,WSW,252,8.0,12.0,26,0.00,,,0.00,0.0,meteohub,2013-05-30 05:12:00,
2013-05-29 22:17:00,80.6,44.4,29.81,WNW,283,4.0,12.0,28,0.00,,,0.00,0.0,meteohub,2013-05-30 05:17:00,
2013-05-29 22:22:00,80.4,46.2,29.81,WSW,258,9.0,12.0,30,0.00,,,0.00,0.0,meteohub,2013-05-30 05:22:00,
2013-05-29 22:27:00,80.2,47.7,29.81,WSW,237,9.0,12.0,32,0.00,,,0.00,0.0,meteohub,2013-05-30 05:27:00,
2013-05-29 22:32:00,79.9,47.3,29.82,WSW,248,4.0,12.0,32,0.00,,,0.00,0.0,meteohub,2013-05-30 05:32:00,
2013-05-29 22:37:00,79.5,47.8,29.82,WSW,239,6.0,12.0,33,0.00,,,0.00,0.0,meteohub,2013-05-30 05:37:00,
2013-05-29 22:42:00,79.3,48.6,29.82,West,261,6.0,11.0,34,0.00,,,0.00,0.0,meteohub,2013-05-30 05:42:00,
2013-05-29 22:47:00,79.2,48.4,29.82,West,268,6.0,11.0,34,0.00,,,0.00,0.0,meteohub,2013-05-30 05:47:00,
2013-05-29 22:52:00,79.0,48.9,29.82,West,267,3.0,12.0,35,0.00,,,0.00,0.0,meteohub,2013-05-30 05:52:00,
2013-05-29 22:57:00,78.6,48.7,29.82,West,273,3.0,12.0,35,0.00,,,0.00,0.0,meteohub,2013-05-30 05:57:00,
2013-05-29 23:02:00,78.4,49.3,29.82,WSW,250,2.0,12.0,36,0.00,,,0.00,0.0,meteohub,2013-05-30 06:02:00,
2013-05-29 23:07:00,78.3,49.1,29.82,West,268,4.0,8.0,36,0.00,,,0.00,0.0,meteohub,2013-05-30 06:07:00,
2013-05-29 23:12:00,78.1,48.9,29.82,WNW,293,1.0,8.0,36,0.00,,,0.00,0.0,meteohub,2013-05-30 06:12:00,
2013-05-29 23:17:00,78.1,48.9,29.82,West,274,2.0,7.0,36,0.00,,,0.00,0.0,meteohub,2013-05-30 06:17:00,
2013-05-29 23:22:00,78.1,48.2,29.82,NW,314,5.0,8.0,35,0.00,,,0.00,0.0,meteohub,2013-05-30 06:22:00,
2013-05-29 23:27:00,78.3,47.7,29.82,NW,310,1.0,8.0,34,0.00,,,0.00,0.0,meteohub,2013-05-30 06:27:00,
2013-05-29 23:32:00,78.3,47.7,29.83,WSW,255,2.0,8.0,34,0.00,,,0.00,0.0,meteohub,2013-05-30 06:32:00,
2013-05-29 23:37:00,77.7,47.8,29.83,WSW,245,1.0,8.0,35,0.00,,,0.00,0.0,meteohub,2013-05-30 06:37:00,
2013-05-29 23:42:00,77.5,47.7,29.83,WSW,245,0.0,5.0,35,0.00,,,0.00,0.0,meteohub,2013-05-30 06:42:00,
2013-05-29 23:47:00,77.0,48.0,29.83,West,261,1.0,3.0,36,0.00,,,0.00,0.0,meteohub,2013-05-30 06:47:00,
2013-05-29 23:52:00,76.6,47.7,29.83,WSW,257,1.0,3.0,36,0.00,,,0.00,0.0,meteohub,2013-05-30 06:52:00,
2013-05-29 23:57:00,76.3,47.3,29.83,WSW,257,0.0,3.0,36,0.00,,,0.00,0.0,meteohub,2013-05-30 06:57:00,